Temperature
17 16 16 16 16 16 16 15 15 15 15 15 15 15 15 15 15 14 14 14 14 14 14 14 14 14 14 14 14 13 13 13 13 12 12 11 11 11 11 11 11 11 11
16 16 16 16 16 16 16 15 15 15 15 15 15 15 15 15 15 14 14 14 14 14 14 14 14 14 14 14 13 13 13 13 13 12 12 11 11 11 11 11 11 11 10
16 16 16 16 16 16 16 15 15 15 15 15 15 15 15 15 15 14 14 14 14 14 14 14 14 14 14 13 13 13 13 13 13 12 12 11 11 11 11 11 11 10 10
16 16 16 16 16 16 15 15 15 15 15 15 15 15 15 14 14 14 14 14 14 14 14 14 13 13 13 13 13 13 13 13 12 12 12 11 11 11 11 11 10 10 10
16 16 16 16 16 15 15 15 15 15 15 15 15 14 14 14 14 14 14 14 14 14 14 13 13 13 13 13 13 13 13 12 12 12 12 11 11 11 10 10 10 10 10
16 16 16 15 15 15 15 15 15 15 15 15 15 14 14 14 14 14 14 14 13 13 13 13 13 13 13 13 13 12 12 12 12 12 11 11 11 10 10 10 10 10 9
16 16 16 15 15 15 15 15 15 15 15 14 14 14 14 14 14 14 14 13 13 13 13 13 13 13 12 12 12 12 12 11 11 11 11 11 10 10 10 10 9 9 9
16 16 15 15 15 15 15 15 15 15 14 14 14 14 14 14 14 14 13 13 13 13 13 13 12 12 12 12 12 12 11 11 11 11 10 10 10 10 9 9 9 9 9
15 15 15 15 15 15 15 15 15 14 14 14 14 14 14 14 13 13 13 13 13 13 12 12 12 12 12 12 12 11 11 11 10 10 10 10 10 9 9 9 9 9 8
15 15 15 15 15 15 15 14 14 14 14 14 14 14 14 13 13 13 13 13 13 13 12 12 12 12 12 11 11 11 11 11 10 10 10 10 9 9 9 9 8 8 8
15 15 15 15 15 15 14 14 14 14 14 14 14 13 13 13 13 13 13 12 12 12 12 12 12 12 11 11 11 11 11 10 10 10 9 9 9 9 9 8 8 8 7
15 15 15 15 14 14 14 14 14 14 14 13 13 13 13 13 13 12 12 12 12 12 12 12 11 11 11 11 11 10 10 10 10 9 9 9 9 8 8 8 8 7 7
15 15 15 14 14 14 14 14 14 13 13 13 13 13 13 12 12 12 12 12 12 12 11 11 11 11 11 10 10 10 10 10 9 9 9 8 8 8 8 7 7 7 7
14 14 14 14 14 14 14 14 14 13 13 13 13 13 12 12 12 12 12 11 11 11 11 11 11 10 10 10 10 9 9 9 9 9 8 8 7 7 7 7 7 7 6
14 14 14 14 14 13 13 13 13 13 13 13 13 13 12 12 12 12 12 11 11 11 11 11 10 10 10 10 9 9 9 9 8 8 8 7 7 7 7 6 6 6 6
14 14 14 13 13 13 13 13 13 13 12 12 12 12 12 12 12 11 11 11 11 11 11 11 10 10 10 9 9 9 9 8 8 8 7 7 7 6 6 6 5 5 5
14 14 13 13 13 13 13 13 12 12 12 12 12 12 12 11 11 11 11 11 10 10 10 10 10 10 9 9 9 8 8 8 8 7 7 7 6 6 6 5 5 5 5
14 13 13 13 13 13 12 12 12 12 12 12 11 11 11 11 11 11 10 10 10 10 10 10 10 9 9 9 8 8 8 8 7 7 7 6 6 6 5 5 5 4 4
13 13 13 13 13 12 12 12 12 12 12 11 11 11 11 11 11 10 10 10 10 10 10 9 9 9 9 8 8 8 7 7 7 7 6 6 6 5 5 5 4 4 4
13 13 13 12 12 12 12 12 11 11 11 11 11 11 11 10 10 10 10 10 10 10 9 9 9 9 8 8 8 7 7 7 7 6 6 5 5 5 5 4 4 4 3
13 12 12 12 12 12 12 11 11 11 11 11 11 11 11 10 10 10 10 10 9 9 9 9 9 8 8 8 7 7 7 6 6 6 5 5 5 5 4 4 3 3 3
12 12 12 12 12 11 11 11 11 11 10 10 10 10 10 10 10 10 10 9 9 9 9 8 8 8 7 7 7 7 7 6 6 6 5 5 4 4 4 3 3 3 2
12 12 12 12 11 11 11 11 11 10 10 10 10 10 9 9 9 9 9 9 9 8 8 8 8 8 7 7 7 7 6 6 6 5 5 5 4 4 4 3 3 2 2
12 12 11 11 11 11 11 10 10 10 10 10 10 10 9 9 9 9 9 9 8 8 8 8 7 7 7 7 7 6 6 6 5 5 5 4 4 4 3 3 2 2 2
11 11 11 11 11 10 10 10 10 10 10 9 9 9 9 9 9 9 8 8 8 8 8 7 7 7 7 6 6 6 6 5 5 5 4 4 4 3 3 2 2 2 1
11 11 11 10 10 10 10 10 10 9 9 9 9 9 9 9 8 8 8 8 8 7 7 7 7 6 6 6 6 6 5 5 5 4 4 4 3 3 3 2 2 1 1
Wind_Speed
7 7 7 6 6 6 6 6 5 4 5 5 5 4 4 4 4 4 3 3 4 3 2 3 2 2 2 2 2 2 2 3 3 1 2 2 3 2 3 3 2 2 3
7 7 7 6 6 6 6 5 5 5 5 5 5 5 4 4 4 5 4 4 4 3 2 3 2 2 2 2 2 2 2 2 3 2 1 2 2 1 2 2 2 2 2
7 7 7 7 7 7 6 5 5 5 5 5 5 5 5 4 4 4 5 4 4 3 3 3 2 3 2 2 3 3 2 3 3 3 1 1 1 2 2 2 3 3 3
7 8 8 8 8 7 6 5 5 6 6 5 5 5 5 5 5 5 5 4 4 3 3 3 2 3 3 3 3 3 3 4 4 3 2 2 1 1 2 2 2 2 2
8 8 8 7 6 6 5 5 5 5 6 6 6 5 5 5 4 5 5 5 5 4 3 2 3 4 4 4 4 4 4 4 3 3 2 2 1 1 1 0 1 2 2
8 8 7 7 7 6 6 5 5 5 5 6 6 5 5 4 6 8 7 5 5 4 3 2 3 3 5 6 6 6 6 5 4 3 2 1 1 1 0 1 1 1 2
8 7 7 8 7 7 6 6 6 5 5 5 5 5 5 5 8 8 8 6 5 4 4 3 3 3 4 3 5 6 4 4 5 5 3 2 2 2 1 1 1 1 2
7 7 8 8 7 6 6 6 6 5 5 5 5 5 5 5 7 9 9 6 5 4 4 4 4 2 3 4 4 4 3 2 3 3 3 3 2 2 3 2 2 1 1
7 7 8 8 8 7 7 6 5 6 5 4 5 5 5 4 7 9 9 5 5 4 3 3 4 3 4 6 5 4 3 2 4 4 4 3 3 2 3 2 2 2 1
8 8 7 7 8 8 8 6 5 5 5 5 4 4 5 5 7 9 9 5 5 3 2 2 4 4 5 6 5 4 3 0 1 3 4 4 5 5 4 2 2 1 0
7 7 7 7 7 7 6 5 6 6 6 5 4 3 3 5 6 9 9 5 5 4 3 2 1 5 5 6 5 4 4 3 2 2 2 2 3 3 4 3 2 2 2
7 7 7 6 6 6 6 5 6 7 6 5 4 2 1 2 5 6 8 7 7 5 4 3 3 5 5 5 4 4 5 5 3 2 2 2 2 2 2 3 3 2 1
7 7 7 6 5 6 7 7 6 6 6 5 5 4 2 1 3 5 7 7 7 5 4 5 5 4 4 3 4 4 4 3 3 2 1 1 1 1 2 2 3 3 3
8 7 6 6 5 5 5 6 6 6 6 5 5 5 3 2 2 3 3 4 5 4 3 4 5 5 4 4 3 3 2 2 3 2 0 1 1 1 1 1 1 2 2
8 7 6 6 6 5 4 4 5 5 7 8 7 6 6 5 6 8 7 5 5 5 5 3 3 2 2 1 1 1 1 1 1 1 1 0 1 1 2 1 1 1 1
8 7 6 5 5 5 5 3 2 3 5 7 7 7 5 6 8 9 8 7 8 9 6 4 3 3 3 3 2 1 1 1 1 1 1 1 0 0 1 1 1 1 2
9 8 6 6 6 6 5 5 3 1 2 4 6 7 7 8 9 9 9 8 8 9 4 4 4 4 3 3 3 2 2 2 2 2 2 1 1 0 0 1 1 1 2
8 8 7 6 6 6 6 5 5 5 4 1 2 5 7 8 9 10 10 8 4 4 3 4 4 4 3 3 3 3 2 1 1 1 1 1 1 1 1 1 1 1 2
8 6 6 5 5 5 5 5 5 5 5 3 2 2 5 7 8 8 9 5 5 4 4 4 4 4 4 3 3 3 3 2 2 2 2 2 2 1 1 1 1 2 2
6 8 8 6 6 5 5 5 5 5 5 4 4 4 4 5 4 4 4 4 4 4 4 4 4 4 4 3 3 3 2 2 2 2 2 2 2 1 2 2 2 2 2
5 7 8 6 6 6 6 6 6 5 5 5 4 5 8 6 6 6 5 4 4 5 4 4 3 3 3 3 3 3 3 3 3 2 2 2 2 2 2 2 2 2 2
5 5 6 6 6 6 6 6 6 6 6 5 3 4 7 4 4 4 4 4 4 4 4 4 4 4 4 4 4 3 3 3 3 3 3 2 2 2 2 2 2 2 2
6 6 5 5 5 7 6 5 5 6 5 5 5 4 5 4 4 4 4 4 4 4 4 5 4 3 4 4 5 5 4 4 3 4 3 3 2 2 2 2 3 3 3
6 6 6 6 6 6 6 6 6 6 6 5 5 5 5 5 5 5 5 4 4 4 5 5 5 5 5 4 5 5 5 5 5 5 5 4 3 3 3 3 3 3 3
6 6 6 6 6 6 6 6 6 6 6 6 5 5 5 5 4 4 4 4 5 4 5 5 5 5 6 5 5 5 5 5 5 4 4 3 3 3 3 3 3 3 3
6 6 6 6 6 6 6 6 6 6 6 5 5 5 5 5 5 5 4 4 4 4 5 5 6 6 6 6 6 6 5 5 5 4 4 3 2 2 3 3 3 3 3
Wind_Direction
178 174 170 174 172 165 169 179 175 167 164 156 156 150 144 142 137 128 129 118 117 108 105 109 95 90 98 95 92 90 93 114 137 4 23 39 67 73 62 72 64 58 43
178 170 168 168 163 162 171 176 169 166 165 159 151 147 146 139 136 135 136 130 127 120 111 103 93 92 87 91 93 90 95 109 136 130 34 36 52 84 79 72 46 35 38
170 164 161 162 162 167 169 165 163 159 152 148 142 144 139 134 130 132 134 134 130 127 126 122 120 110 91 91 96 94 88 92 101 121 86 32 37 50 47 35 35 23 25
163 163 166 172 174 171 165 163 164 158 150 145 139 141 139 135 131 128 123 125 120 115 119 121 123 130 137 129 117 119 109 97 94 102 89 46 28 5 53 35 9 354 358
163 164 173 173 167 158 156 156 152 151 151 145 137 136 133 133 143 140 133 131 125 114 101 102 111 118 125 127 131 134 125 114 107 100 91 61 29 24 359 314 5 345 342
165 170 168 160 156 155 154 144 139 141 143 139 140 142 138 149 153 151 143 137 137 133 124 109 97 88 96 99 118 126 134 136 140 128 120 124 239 257 290 64 72 36 325
164 165 164 160 158 159 153 142 141 146 143 140 145 142 143 152 154 151 149 141 136 140 140 134 123 99 88 91 93 89 91 119 141 146 147 186 197 218 164 106 140 173 252
161 163 165 161 158 153 149 151 148 143 143 146 150 151 146 154 150 147 141 127 122 125 131 136 132 124 118 115 106 89 73 67 113 132 160 193 196 190 177 175 185 176 309
167 169 167 162 159 158 161 163 154 145 144 146 149 149 148 153 147 144 135 126 120 118 122 128 136 140 140 124 112 106 81 38 71 95 109 101 80 80 106 93 72 72 336
177 175 167 164 164 169 170 162 151 148 150 147 143 153 158 160 154 147 139 132 129 129 116 122 136 139 138 133 129 126 121 74 60 63 56 52 56 53 62 99 148 134 217
171 162 160 164 167 167 160 154 148 144 141 144 143 150 159 164 163 155 149 148 153 149 145 153 153 140 130 133 132 141 152 136 102 87 60 34 33 33 31 38 74 150 168
156 157 157 160 165 159 155 154 151 147 146 149 145 143 159 169 165 166 161 162 159 156 168 175 160 145 134 131 128 128 121 106 93 79 61 30 14 355 345 15 34 52 132
152 158 159 158 159 159 161 159 155 155 158 164 163 170 182 174 165 160 159 158 158 159 167 163 152 142 131 117 113 118 114 106 105 98 76 308 292 300 348 11 20 28 14
160 162 160 158 156 156 161 163 162 165 167 171 174 176 174 163 162 158 159 155 150 147 144 141 133 121 111 103 91 89 106 131 141 151 208 305 346 1 356 355 354 354 356
163 165 163 163 163 160 159 165 171 182 184 179 183 180 173 184 198 176 165 170 169 161 133 110 107 110 113 92 80 83 97 106 125 129 117 37 12 10 344 340 3 14 345
164 165 165 164 164 160 154 131 88 155 174 179 176 174 185 184 169 167 167 164 158 147 130 140 156 162 166 171 166 163 153 170 185 167 160 171 190 257 325 343 7 356 324
171 171 167 168 167 165 165 164 160 94 105 152 172 174 173 165 162 162 160 153 148 142 142 166 176 181 183 181 183 185 200 206 181 166 179 198 206 235 312 325 332 328 316
170 169 168 174 173 172 174 174 172 169 169 184 182 177 173 167 162 159 150 135 138 150 169 179 186 188 187 189 192 197 201 185 170 177 187 199 201 214 265 290 291 296 301
169 172 170 167 167 168 168 165 168 170 171 171 154 159 164 156 153 157 149 153 171 184 192 192 191 190 192 191 192 190 188 191 192 188 201 209 207 205 244 261 272 295 297
171 169 165 164 162 163 166 165 165 166 169 173 178 178 154 141 154 168 174 178 182 190 192 194 196 191 187 187 187 185 193 201 197 197 209 214 215 216 234 248 264 281 280
167 170 164 162 170 172 171 172 171 171 176 181 189 181 166 170 179 180 181 187 192 194 192 187 188 189 186 179 183 190 199 209 204 197 205 217 217 224 238 240 253 262 276
163 169 175 176 174 173 173 174 172 174 177 177 177 169 168 166 174 179 184 192 194 188 180 175 179 183 184 184 187 194 203 210 206 200 204 210 215 224 229 240 253 266 276
165 167 170 171 170 167 166 171 173 176 177 178 174 166 170 182 184 185 187 186 174 173 169 166 170 175 179 187 190 188 203 215 219 209 204 207 214 226 231 239 248 266 271
170 173 175 174 171 172 176 179 179 178 176 177 179 178 179 184 187 187 184 174 169 168 168 170 174 177 174 179 191 196 203 211 206 201 198 205 213 225 235 246 250 256 262
171 174 177 178 178 179 179 179 179 180 178 181 183 182 180 181 184 185 182 174 171 171 174 174 176 179 182 185 188 194 203 204 198 194 197 200 213 223 231 240 249 262 268
172 174 176 176 177 179 181 183 183 182 183 183 181 179 180 182 184 180 174 170 172 174 173 175 177 179 182 188 193 194 194 194 198 197 186 191 210 226 229 239 248 256 264
Height
1536 1538 1539 1541 1543 1544 1546 1547 1549 1550 1551 1552 1553 1554 1555 1556 1557 1557 1558 1558 1559 1559 1559 1559 1559 1559 1559 1559 1558 1558 1558 1557 1556 1556 1556 1555 1554 1554 1553 1553 1552 1551 1550
1534 1535 1537 1539 1541 1542 1544 1546 1548 1549 1550 1551 1552 1553 1554 1555 1556 1557 1557 1558 1558 1558 1558 1558 1558 1558 1558 1558 1557 1557 1557 1556 1556 1555 1555 1555 1554 1554 1553 1552 1551 1550 1549
1531 1533 1535 1537 1539 1541 1542 1544 1546 1547 1549 1550 1551 1552 1553 1554 1555 1556 1556 1557 1557 1557 1558 1558 1558 1558 1557 1557 1557 1557 1556 1556 1556 1555 1554 1554 1554 1554 1553 1552 1551 1550 1549
1529 1531 1533 1535 1537 1539 1541 1543 1544 1546 1547 1548 1549 1551 1552 1553 1554 1554 1555 1556 1556 1557 1557 1557 1557 1557 1557 1557 1556 1556 1556 1555 1555 1555 1554 1554 1553 1553 1552 1551 1550 1549 1548
1527 1529 1531 1533 1536 1537 1539 1541 1543 1544 1546 1547 1548 1550 1551 1552 1553 1554 1554 1555 1555 1556 1556 1556 1556 1556 1556 1556 1556 1555 1555 1555 1554 1554 1554 1553 1553 1552 1551 1550 1549 1548 1547
1524 1527 1529 1531 1534 1536 1538 1539 1541 1543 1544 1546 1547 1548 1549 1550 1552 1553 1554 1554 1555 1555 1555 1555 1555 1556 1555 1555 1555 1555 1555 1554 1553 1553 1553 1552 1552 1552 1551 1550 1548 1547 1546
1522 1525 1527 1529 1531 1534 1536 1538 1539 1541 1542 1544 1545 1547 1548 1549 1550 1552 1553 1553 1554 1554 1554 1554 1555 1555 1555 1555 1554 1554 1553 1553 1553 1553 1552 1552 1551 1551 1550 1549 1548 1546 1545
1520 1522 1525 1527 1529 1531 1534 1535 1537 1539 1540 1542 1543 1545 1546 1547 1549 1550 1551 1552 1552 1553 1553 1554 1554 1554 1554 1554 1553 1553 1553 1552 1552 1551 1551 1551 1550 1550 1549 1548 1547 1545 1544
1517 1520 1522 1525 1527 1529 1531 1533 1535 1537 1538 1540 1542 1543 1545 1546 1547 1548 1549 1550 1551 1551 1552 1552 1553 1553 1553 1553 1552 1552 1552 1551 1551 1551 1550 1550 1549 1548 1547 1546 1545 1544 1542
1515 1517 1520 1523 1525 1527 1529 1531 1533 1535 1536 1538 1540 1541 1543 1544 1545 1546 1548 1548 1549 1550 1550 1551 1551 1551 1551 1551 1551 1551 1550 1550 1550 1549 1549 1548 1547 1547 1546 1544 1543 1542 1540
1513 1515 1518 1521 1523 1525 1527 1529 1530 1532 1534 1536 1538 1539 1541 1542 1543 1544 1545 1546 1547 1548 1548 1549 1549 1550 1550 1550 1550 1549 1549 1549 1549 1548 1547 1547 1546 1545 1543 1542 1541 1540 1538
1511 1513 1516 1518 1521 1523 1525 1526 1528 1530 1532 1534 1535 1537 1538 1540 1541 1542 1543 1544 1545 1546 1546 1547 1547 1548 1548 1548 1548 1548 1548 1548 1547 1546 1546 1545 1544 1543 1541 1540 1539 1538 1536
1508 1511 1513 1516 1518 1520 1522 1524 1526 1528 1529 1531 1533 1534 1535 1537 1539 1540 1541 1542 1543 1543 1544 1545 1546 1546 1546 1546 1546 1546 1546 1545 1545 1544 1543 1543 1542 1541 1540 1538 1537 1535 1534
1505 1508 1511 1513 1516 1518 1520 1522 1523 1525 1526 1528 1530 1531 1533 1534 1536 1537 1538 1539 1540 1541 1542 1542 1543 1544 1544 1544 1544 1544 1543 1543 1543 1542 1541 1541 1540 1539 1537 1535 1534 1532 1530
1502 1505 1508 1510 1512 1515 1517 1519 1520 1522 1524 1526 1527 1529 1530 1531 1533 1534 1535 1536 1537 1538 1539 1540 1540 1541 1541 1541 1541 1541 1541 1541 1540 1540 1539 1538 1537 1536 1534 1533 1531 1529 1527
1500 1502 1505 1507 1509 1511 1513 1515 1518 1520 1522 1524 1525 1527 1528 1530 1531 1532 1533 1534 1535 1536 1536 1537 1537 1538 1538 1538 1538 1538 1538 1538 1537 1537 1536 1535 1534 1532 1531 1530 1528 1526 1524
1497 1499 1502 1504 1506 1508 1510 1512 1514 1517 1519 1521 1522 1524 1525 1527 1528 1529 1530 1531 1532 1532 1533 1533 1534 1534 1535 1535 1536 1536 1535 1535 1535 1534 1533 1532 1531 1530 1528 1527 1525 1523 1521
1495 1496 1499 1501 1503 1505 1507 1509 1511 1513 1514 1516 1519 1520 1522 1523 1525 1526 1527 1528 1528 1529 1529 1530 1531 1531 1532 1532 1532 1532 1532 1532 1531 1531 1530 1529 1528 1527 1525 1523 1522 1520 1518
1492 1494 1496 1498 1500 1502 1504 1506 1508 1510 1512 1513 1515 1517 1518 1520 1521 1522 1523 1524 1524 1525 1526 1527 1527 1528 1528 1529 1529 1529 1529 1528 1528 1527 1526 1526 1525 1523 1522 1520 1518 1517 1515
1489 1491 1493 1495 1497 1499 1501 1503 1505 1506 1508 1510 1511 1512 1514 1515 1516 1518 1519 1520 1521 1522 1523 1523 1524 1524 1525 1525 1525 1525 1525 1525 1524 1523 1523 1522 1521 1520 1518 1516 1515 1513 1511
1486 1488 1490 1492 1494 1496 1498 1500 1501 1503 1505 1506 1508 1509 1511 1512 1513 1514 1515 1517 1518 1518 1519 1520 1520 1520 1521 1521 1521 1522 1521 1521 1520 1519 1519 1518 1517 1516 1514 1513 1511 1509 1507
1483 1485 1487 1489 1491 1492 1494 1496 1498 1500 1501 1503 1504 1506 1508 1509 1510 1511 1512 1513 1514 1515 1516 1516 1516 1517 1517 1517 1517 1518 1517 1517 1516 1515 1514 1514 1513 1512 1510 1509 1507 1505 1504
1480 1482 1484 1486 1488 1489 1491 1493 1495 1496 1498 1500 1501 1502 1504 1505 1506 1508 1509 1510 1511 1511 1512 1512 1512 1513 1513 1514 1514 1514 1513 1513 1512 1512 1511 1509 1508 1507 1506 1505 1503 1501 1500
1476 1478 1480 1482 1484 1486 1488 1490 1491 1493 1494 1496 1497 1499 1500 1502 1503 1504 1505 1506 1507 1508 1508 1509 1509 1509 1509 1509 1509 1509 1509 1509 1508 1508 1507 1505 1504 1503 1502 1500 1499 1498 1496
1473 1474 1477 1478 1480 1482 1484 1486 1487 1489 1491 1492 1494 1495 1497 1498 1499 1501 1502 1503 1503 1504 1504 1505 1505 1505 1505 1506 1505 1505 1505 1505 1504 1503 1502 1501 1500 1499 1498 1496 1495 1494 1492
1469 1471 1473 1475 1476 1478 1480 1482 1483 1485 1487 1488 1490 1491 1493 1494 1496 1497 1498 1499 1499 1500 1500 1501 1501 1502 1502 1502 1502 1501 1501 1501 1500 1499 1498 1497 1496 1495 1493 1492 1491 1490 1488